This demonstration page uses our WeatherBlox Daily Observations layout. Learn more.

Hourly Observations for July 19, 2020

Temp ( °F °C ) Dew Point ( °F °C ) Humidity (%) Winds ( mph kmh ) Pressure ( in mb ) Visibility ( mi km ) Precip ( " mm )
12:15 am 00:15 Mostly Cloudy 74 23.2 70 20.9 87 87 Calm 29.91 1013 10 16.0934 0 0
12:35 am 00:35 Partly Cloudy 73 22.9 69 20.8 88 88 NW 3 6 29.91 1013 10 16.0934 0 0
12:55 am 00:55 Partly Cloudy 73 22.7 70 20.9 90 90 Calm 29.93 1014 10 16.0934 0 0
1:15 am 01:15 Partly Cloudy 72 22 69 20.7 92 92 NNE 5 7 29.93 1014 10 16.0934 0 0
1:35 am 01:35 Clear 71 21.7 69 20.6 94 94 NNE 6 9 29.92 1013 10 16.0934 0 0
1:55 am 01:55 Clear 71 21.7 69 20.6 94 94 NE 6 9 29.92 1013 10 16.0934 0 0
2:15 am 02:15 Clear 71 21.7 69 20.5 93 93 Calm 29.93 1014 10 16.0934 0 0
2:35 am 02:35 Partly Cloudy 71 21.6 69 20.3 92 92 ESE 6 9 29.94 1014 10 16.0934 0 0
2:55 am 02:55 Clear 70 21.3 69 20.3 94 94 Calm 29.96 1014 10 16.0934 0 0
3:15 am 03:15 Clear 70 21.1 68 20 93 93 E 3 6 29.96 1014 10 16.0934 0 0
3:35 am 03:35 Clear 70 21.3 68 20.2 93 93 Calm 29.96 1014 10 16.0934 0 0
3:55 am 03:55 Clear 70 21 68 20 94 94 Calm 29.95 1014 10 16.0934 0 0
4:15 am 04:15 Clear 68 20.1 67 19.4 96 96 NE 6 9 29.95 1014 7 11.26538 0 0
4:35 am 04:35 Clear 68 20.2 67 19.6 96 96 NE 6 9 29.94 1014 7 11.26538 0 0
4:55 am 04:55 Clear 68 20.2 67 19.6 96 96 NNE 5 7 29.94 1014 7 11.26538 0 0
5:15 am 05:15 Clear with Nearby Thunderstorms 68 20.2 67 19.6 96 96 NE 3 6 29.93 1013 7 11.26538 0 0
5:35 am 05:35 Clear with Nearby Thunderstorms 68 20.1 67 19.5 96 96 NNE 5 7 29.93 1013 5 8.0467 0 0
5:55 am 05:55 Clear 68 20.1 67 19.5 96 96 Calm 29.93 1013 7 11.26538 0 0
6:15 am 06:15 Mostly Cloudy 68 20 67 19.5 97 97 N 3 6 29.94 1014 7 11.26538 0 0
6:35 am 06:35 Partly Cloudy with Mist and Fog 67 19.5 66 19 97 97 Calm 29.93 1014 5 8.0467 0 0
6:55 am 06:55 Sunny with Mist and Fog 67 19.3 66 18.8 97 97 NNW 5 7 29.94 1014 4 6.43736 0 0
7:15 am 07:15 Sunny with Mist and Fog 67 19.5 66 19 97 97 NW 3 6 29.94 1014 4 6.43736 0 0
7:35 am 07:35 Sunny with Mist and Fog 67 19.7 67 19.2 97 97 N 3 6 29.96 1015 5 8.0467 0 0
7:55 am 07:55 Partly Cloudy 69 20.8 68 20.1 96 96 NNW 5 7 29.95 1014 7 11.26538 0 0
8:15 am 08:15 Partly Cloudy 72 22 69 20.3 90 90 NNE 8 13 29.94 1014 10 16.0934 0 0
8:35 am 08:35 Sunny 73 23 67 19.3 80 80 NE 8 13 29.93 1014 10 16.0934 0 0
8:55 am 08:55 Mostly Cloudy 75 24 65 18.2 70 70 E 7 11 29.91 1013 10 16.0934 0 0
9:15 am 09:15 Mostly Cloudy 74 23.2 65 18.2 74 74 E 5 7 29.95 1014 10 16.0934 0 0
9:35 am 09:35 Cloudy 75 24 65 18.5 71 71 SE 6 9 29.93 1014 10 16.0934 0 0
9:55 am 09:55 Cloudy 77 25.1 64 17.9 64 64 SSE 6 9 29.95 1014 10 16.0934 0 0
10:15 am 10:15 Partly Cloudy 80 26.4 63 17.2 57 57 SSE 8 13 29.94 1014 10 16.0934 0 0
10:35 am 10:35 Sunny 81 27 63 17.1 55 55 ESE 10 17 29.93 1014 10 16.0934 0 0
10:55 am 10:55 Sunny 81 27.2 62 16.5 52 52 ESE 12 19 29.93 1014 10 16.0934 0 0
11:15 am 11:15 Sunny 81 27.3 61 16 50 50 ESE 12 19 29.93 1013 10 16.0934 0 0
11:35 am 11:35 Sunny 82 27.7 60 15.7 48 48 ESE 9 15 29.92 1013 10 16.0934 0 0
11:55 am 11:55 Sunny 83 28.1 61 16.3 49 49 SE 9 15 29.92 1013 10 16.0934 0 0
12:15 pm 12:15 Sunny 83 28.5 61 16.1 47 47 ESE 10 17 29.9 1012 10 16.0934 0 0
12:35 pm 12:35 Sunny 83 28.5 62 16.6 49 49 ESE 10 17 29.9 1012 10 16.0934 0 0
12:55 pm 12:55 Partly Cloudy 84 28.9 63 17.2 49 49 E 8 13 29.9 1012 10 16.0934 0 0
1:15 pm 13:15 Partly Cloudy 85 29.5 61 16 44 44 ESE 13 20 29.88 1012 10 16.0934 0 0
1:35 pm 13:35 Sunny 85 29.4 62 16.5 46 46 ESE 10 17 29.88 1012 10 16.0934 0 0
1:55 pm 13:55 Sunny 85 29.6 64 17.7 49 49 ESE 13 20 29.88 1012 10 16.0934 0 0
2:15 pm 14:15 Sunny 86 29.9 64 17.5 47 47 SE 12 19 29.88 1012 10 16.0934 0 0
2:35 pm 14:35 Sunny 86 30 63 17.2 46 46 ESE 16 26 29.88 1012 10 16.0934 0 0
2:55 pm 14:55 Sunny 86 30 63 17.2 46 46 E 14 22 29.87 1011 10 16.0934 0 0
3:15 pm 15:15 Sunny 86 30.1 65 18.2 49 49 SE 13 20 29.86 1011 10 16.0934 0 0
3:35 pm 15:35 Partly Cloudy 86 30.2 65 18.3 49 49 SE 14 22 29.86 1011 10 16.0934 0 0
3:55 pm 15:55 Partly Cloudy 86 30.1 66 19.1 52 52 SE 15 24 29.85 1011 10 16.0934 0 0
4:15 pm 16:15 Partly Cloudy 85 29.6 65 18.1 50 50 SE 13 20 29.84 1011 10 16.0934 0 0
4:35 pm 16:35 Sunny 87 30.5 65 18.6 49 49 SE 12 19 29.84 1011 10 16.0934 0 0
4:55 pm 16:55 Sunny 87 30.3 65 18.1 48 48 SE 12 19 29.84 1010 10 16.0934 0 0
5:15 pm 17:15 Sunny 86 30.1 66 18.7 50 50 SE 12 19 29.82 1010 10 16.0934 0 0
5:35 pm 17:35 Partly Cloudy 85 29.5 68 19.9 56 56 SE 13 20 29.82 1010 10 16.0934 0 0
5:55 pm 17:55 Mostly Cloudy 85 29.5 68 20.1 57 57 SE 13 20 29.82 1010 10 16.0934 0 0
6:15 pm 18:15 Partly Cloudy 86 30.1 66 18.8 51 51 SSE 8 13 29.82 1010 10 16.0934 0 0
6:35 pm 18:35 Partly Cloudy 86 30.2 65 18.5 50 50 SSE 9 15 29.82 1010 10 16.0934 0 0
6:55 pm 18:55 Partly Cloudy 85 29.6 66 19 53 53 SSE 7 11 29.8 1009 10 16.0934 0 0
7:15 pm 19:15 Cloudy 85 29.5 67 19.5 55 55 SE 6 9 29.82 1010 10 16.0934 0 0
7:35 pm 19:35 Cloudy 85 29.2 69 20.3 59 59 ESE 5 7 29.81 1010 10 16.0934 0 0
7:55 pm 19:55 Partly Cloudy 83 28.4 70 21.2 65 65 ESE 9 15 29.81 1009 10 16.0934 0 0
8:15 pm 20:15 Sunny 82 27.5 71 21.4 69 69 ESE 7 11 29.82 1010 10 16.0934 0 0
8:35 pm 20:35 Sunny 79 26.2 71 21.7 76 76 E 6 9 29.84 1010 10 16.0934 0 0
8:55 pm 20:55 Sunny 78 25.3 71 21.9 82 82 E 5 7 29.84 1011 10 16.0934 0 0
9:15 pm 21:15 Clear 76 24.5 71 21.8 85 85 E 6 9 29.85 1011 10 16.0934 0 0
9:35 pm 21:35 Clear 75 23.8 71 21.7 88 88 E 6 9 29.87 1011 10 16.0934 0 0
9:55 pm 21:55 Partly Cloudy 75 24 71 21.9 88 88 ESE 8 13 29.88 1012 10 16.0934 0 0
10:15 pm 22:15 Mostly Cloudy 75 24 71 21.6 87 87 ESE 8 13 29.88 1012 10 16.0934 0 0
10:35 pm 22:35 Partly Cloudy 75 24.1 71 21.5 85 85 ESE 8 13 29.89 1012 10 16.0934 0 0
10:55 pm 22:55 Partly Cloudy with Nearby Thunderstorms 75 23.8 71 21.4 86 86 ESE 8 13 29.89 1012 10 16.0934 0 0
11:15 pm 23:15 Partly Cloudy 74 23.6 69 20.8 84 84 SE 10 17 29.89 1012 10 16.0934 0 0
11:35 pm 23:35 Partly Cloudy 75 23.7 65 18.6 73 73 SE 13 20 29.89 1012 10 16.0934 0 0
11:55 pm 23:55 Mostly Cloudy 74 23.5 64 18 71 71 ESE 12 19 29.88 1012 10 16.0934 0 0

Powered by AerisWeather